Tracking 23762 objects as of 22-Oct-2021
HD Live streaming from Space Station
objects crossing your sky now

CZ-4B DEB

Track CZ-4B DEB now!
10-day predictions


NORAD ID: 46480
Int'l Code: 2020-067C
Perigee: 606.1 km
Apogee: 658.3 km
Inclination: 98.0 °
Period: 97.2 minutes
Semi major axis: 7003 km
RCS: Unknown
Launch date: September 27, 2020
Source: People's Republic of China (PRC)
Launch site: Taiyaun Space Center, China (TSC)

Note: This is SATELLITE DEBRIS
aabbcc
Your satellite tracking list
Your tracking list is empty




NASA's NSSDC Master Catalog

Two Line Element Set (TLE):
1 46480U 20067C   21294.46808401  .00001025  00000-0  13666-3 0  9999
2 46480  97.9505  13.1697 0037237 195.2324 164.7770 14.81353723 57623
Source of the keplerian elements: AFSPC